G7NPW-1 Weather Reports


time (UTC)temp
C
wind
direction
speed
KPH
gust
KPH
rain 1hr
cm
rain 24hr
cm
rain mn
cm
humidity
%
barometer
mb
20260510145006 12 40 20.9 45.1 0.00 0.00 0.00 40 1017.9
20260510143505 12 40 20.9 45.1 0.00 0.00 0.00 40 1017.9
20260510142008 12 40 20.9 45.1 0.00 0.00 0.00 40 1017.9
20260510141503 12 40 20.9 45.1 0.00 0.00 0.00 40 1017.9
20260510141006 12 40 20.9 45.1 0.00 0.00 0.00 40 1017.9
20260510140504 12 40 20.9 45.1 0.00 0.00 0.00 40 1017.9
20260510135007 12 40 19.3 19.3 0.00 0.00 0.00 43 1019.0
20260510134007 12 40 19.3 19.3 0.00 0.00 0.00 43 1019.0
20260510130503 12 40 19.3 22.5 0.00 0.00 0.00 43 1019.0
20260510125504 12 60 22.5 22.5 0.00 0.00 0.00 43 1019.0
20260510125007 12 60 22.5 22.5 0.00 0.00 0.00 43 1019.0
20260510123007 12 60 22.5 22.5 0.00 0.00 0.00 43 1019.0
20260510113008 11 30 20.9 20.9 0.00 0.00 0.00 53 1020.0
20260510111504 11 30 20.9 20.9 0.00 0.00 0.00 53 1020.0
20260510105504 11 50 24.1 24.1 0.00 0.00 0.00 53 1020.0
20260510103504 11 50 24.1 24.1 0.00 0.00 0.00 53 1020.0
20260510103006 11 50 24.1 24.1 0.00 0.00 0.00 53 1020.0
20260510095007 8 30 20.9 20.9 0.00 0.00 0.00 66 1021.0
20260510094504 8 30 20.9 20.9 0.00 0.00 0.00 66 1021.0
20260510092504 8 30 20.9 20.9 0.00 0.00 0.00 66 1021.0
20260510090004 8 30 20.9 22.5 0.00 0.00 0.00 66 1021.0
20260510085007 7 30 22.5 22.5 0.00 0.00 0.00 75 1021.0
20260510084007 7 30 22.5 22.5 0.00 0.00 0.00 75 1021.0
20260510082503 7 30 22.5 22.5 0.00 0.00 0.00 75 1021.0
20260510082008 7 30 22.5 22.5 0.00 0.00 0.00 75 1021.0
20260510080504 7 30 22.5 22.5 0.00 0.00 0.00 75 1021.0
20260510073007 7 40 22.5 22.5 0.00 0.00 0.00 75 1021.0
20260510070504 7 40 22.5 22.5 0.00 0.00 0.00 75 1021.0
20260510063504 10 20 20.9 20.9 0.00 0.00 0.00 87 1020.0
20260510063007 10 20 20.9 20.9 0.00 0.00 0.00 87 1020.0
20260510060504 10 20 20.9 20.9 0.00 0.00 0.00 87 1020.0
20260509210504 10 20 20.9 22.5 0.00 0.00 0.00 87 1020.0
20260509205505 11 20 22.5 22.5 0.00 0.00 0.00 81 1020.0
20260509204504 11 20 22.5 22.5 0.00 0.00 0.00 81 1020.0
20260509204007 11 20 22.5 22.5 0.00 0.00 0.00 81 1020.0
20260509203504 11 20 22.5 22.5 0.00 0.00 0.00 81 1020.0
20260509203007 11 20 22.5 22.5 0.00 0.00 0.00 81 1020.0
20260509202008 11 20 22.5 22.5 0.00 0.00 0.00 81 1020.0
20260509200004 11 20 22.5 22.5 0.00 0.00 0.00 81 1020.0
20260509192007 11 10 16.1 16.1 0.00 0.00 0.00 87 1019.0
20260509190004 11 10 16.1 19.3 0.00 0.00 0.00 87 1019.0
20260509185008 12 10 19.3 19.3 0.00 0.00 0.00 76 1019.0
20260509181504 12 10 19.3 19.3 0.00 0.00 0.00 76 1019.0
20260509174007 16 10 16.1 16.1 0.00 0.00 0.00 63 1017.9
20260509171504 16 10 16.1 16.1 0.00 0.00 0.00 63 1017.9
20260509170505 16 10 16.1 16.1 0.00 0.00 0.00 63 1017.9
20260509170004 16 10 16.1 16.1 0.00 0.00 0.00 63 1017.9
20260509163504 16 10 16.1 16.1 0.00 0.00 0.00 63 1017.9
20260509162007 16 10 16.1 16.1 0.00 0.00 0.00 63 1017.9
20260509161504 16 10 16.1 16.1 0.00 0.00 0.00 63 1017.9
20260509161007 16 10 16.1 16.1 0.00 0.00 0.00 63 1017.9
20260509160504 16 10 16.1 16.1 0.00 0.00 0.00 63 1017.9
20260509155504 18 20 12.9 12.9 0.00 0.00 0.00 55 1017.9
20260509154504 18 20 12.9 12.9 0.00 0.00 0.00 55 1017.9
20260509153007 18 20 12.9 12.9 0.00 0.00 0.00 55 1017.9
20260509152504 18 20 12.9 12.9 0.00 0.00 0.00 55 1017.9
20260509151503 18 20 12.9 12.9 0.00 0.00 0.00 55 1017.9
20260509150004 18 20 12.9 12.9 0.00 0.00 0.00 55 1017.9